Location: ????????
(55.6189°N, 38.3031°E)
Time: 08:06:30
(UTC+00:00)

SL-16 R/B - Pass Details

Date: 01 March 2020
Orbit: 843 x 847 km, 71.0° (Epoch: 04 April)

Event Time Altitude Azimuth Distance (km) Brightness Sun altitude
Exits shadow 03:26:49 - 302° (WNW) 2,897 4.5 -7.9°
Reaches altitude 10° 03:28:27 10° 313° (NW) 2,476 4.2 -7.6°
Maximum altitude 03:32:09 17° 354° (N) 2,004 4.1 -7.1°
Drops below altitude 10° 03:35:51 10° 35° (NE) 2,476 5.1 -6.6°
Sets 03:39:12 0° 55° (NE) 3,411 6.3 -6.1°
